• în Republica Moldova
  • Lista ţărilor
  • Pe 7 zile
  • Temperatura apei
  • Hartă satelitară
  • Meteo pe hartă
  • Widget-uri
  • user-avatar
    Intrare

    Meteo pe oră la Stublevka

    Astăzi, 25 Septembrie, Marţi

    Timp Temperatura Precipitaţii Vânt Presiune Umiditate
    00:00 +7°C° 0 mm 8 m/s 728 mmHg 85%
    01:00 +8°C° 0 mm 7 m/s 728 mmHg 85%
    02:00 +7°C° 0 mm 5 m/s 728 mmHg 85%
    03:00 +7°C° 0 mm 6 m/s 729 mmHg 84%
    04:00 +7°C° 0 mm 6 m/s 729 mmHg 84%
    05:00 +6°C° 0 mm 7 m/s 729 mmHg 84%
    06:00 +6°C° 0 mm 7 m/s 730 mmHg 83%
    07:00 +6°C° 0 mm 7 m/s 730 mmHg 82%
    08:00 +6°C° 0 mm 7 m/s 730 mmHg 81%
    09:00 +6°C° 0.1 mm 7 m/s 731 mmHg 79%
    10:00 +7°C° 0.1 mm 8 m/s 732 mmHg 76%
    11:00 +7°C° 0.1 mm 8 m/s 732 mmHg 74%
    12:00 +7°C° 0.1 mm 8 m/s 733 mmHg 72%
    13:00 +8°C° 0.1 mm 7 m/s 734 mmHg 71%
    14:00 +8°C° 0.1 mm 7 m/s 735 mmHg 69%
    15:00 +6°C° 0 mm 7 m/s 735 mmHg 70%
    16:00 +7°C° 0 mm 6 m/s 736 mmHg 71%
    17:00 +5°C° 0 mm 6 m/s 737 mmHg 72%
    18:00 +6°C° 0 mm 5 m/s 737 mmHg 72%
    19:00 +6°C° 0 mm 5 m/s 738 mmHg 72%
    20:00 +6°C° 0 mm 5 m/s 738 mmHg 73%
    21:00 +6°C° 0 mm 5 m/s 739 mmHg 74%
    22:00 +5°C° 0 mm 5 m/s 739 mmHg 75%
    23:00 +5°C° 0 mm 5 m/s 740 mmHg 76%

    Mâine, 26 Septembrie, Miercuri

    Timp Temperatura Precipitaţii Vânt Presiune Umiditate
    00:00 +5°C° 0 mm 4 m/s 741 mmHg 79%
    01:00 +4°C° 0 mm 4 m/s 741 mmHg 81%
    02:00 +3°C° 0 mm 4 m/s 741 mmHg 83%
    03:00 +3°C° 0 mm 4 m/s 742 mmHg 84%
    04:00 +3°C° 0 mm 4 m/s 742 mmHg 86%
    05:00 +1°C° 0 mm 4 m/s 743 mmHg 87%
    06:00 +3°C° 0 mm 4 m/s 744 mmHg 83%
    07:00 +4°C° 0 mm 4 m/s 744 mmHg 79%
    08:00 +3°C° 0 mm 5 m/s 745 mmHg 75%
    09:00 +5°C° 0 mm 5 m/s 745 mmHg 69%
    10:00 +7°C° 0 mm 4 m/s 745 mmHg 63%
    11:00 +8°C° 0 mm 4 m/s 746 mmHg 56%
    12:00 +8°C° 0 mm 4 m/s 746 mmHg 54%
    13:00 +8°C° 0 mm 5 m/s 745 mmHg 52%
    14:00 +9°C° 0 mm 5 m/s 745 mmHg 50%
    15:00 +8°C° 0 mm 4 m/s 745 mmHg 54%
    16:00 +8°C° 0 mm 3 m/s 745 mmHg 59%
    17:00 +7°C° 0 mm 3 m/s 745 mmHg 64%
    18:00 +7°C° 0 mm 3 m/s 745 mmHg 66%
    19:00 +6°C° 0 mm 4 m/s 745 mmHg 68%
    20:00 +5°C° 0 mm 5 m/s 745 mmHg 70%
    21:00 +5°C° 0 mm 5 m/s 744 mmHg 69%
    22:00 +4°C° 0 mm 6 m/s 743 mmHg 67%
    23:00 +5°C° 0 mm 6 m/s 743 mmHg 66%

    Poimâine, 27 Septembrie, Joi

    Timp Temperatura Precipitaţii Vânt Presiune Umiditate
    00:00 +5°C° 0.1 mm 7 m/s 742 mmHg 65%
    01:00 +5°C° 0.1 mm 7 m/s 741 mmHg 64%
    02:00 +5°C° 0.1 mm 8 m/s 740 mmHg 62%
    03:00 +3°C° 0.6 mm 9 m/s 739 mmHg 68%
    04:00 +3°C° 0.6 mm 10 m/s 738 mmHg 73%
    05:00 +3°C° 0.6 mm 11 m/s 737 mmHg 78%
    06:00 +3°C° 0.6 mm 11 m/s 736 mmHg 80%
    07:00 +3°C° 0.6 mm 11 m/s 735 mmHg 82%
    08:00 +3°C° 0.6 mm 11 m/s 734 mmHg 84%
    09:00 +5°C° 0.4 mm 10 m/s 734 mmHg 84%
    10:00 +6°C° 0.4 mm 10 m/s 734 mmHg 85%
    11:00 +6°C° 0.4 mm 9 m/s 734 mmHg 86%
    12:00 +7°C° 0.3 mm 9 m/s 733 mmHg 86%
    13:00 +7°C° 0.3 mm 9 m/s 733 mmHg 86%
    14:00 +9°C° 0.3 mm 8 m/s 733 mmHg 86%
    15:00 +9°C° 0.1 mm 7 m/s 734 mmHg 84%
    16:00 +9°C° 0.1 mm 7 m/s 734 mmHg 82%
    17:00 +9°C° 0.1 mm 6 m/s 735 mmHg 80%
    18:00 +8°C° 0 mm 5 m/s 735 mmHg 81%
    19:00 +7°C° 0 mm 5 m/s 736 mmHg 81%
    20:00 +6°C° 0 mm 5 m/s 736 mmHg 82%
    21:00 +6°C° 0 mm 5 m/s 736 mmHg 84%
    22:00 +6°C° 0 mm 5 m/s 737 mmHg 85%
    23:00 +5°C° 0 mm 5 m/s 737 mmHg 87%

    28 Septembrie, Vineri

    Timp Temperatura Precipitaţii Vânt Presiune Umiditate
    00:00 +5°C° 0 mm 5 m/s 737 mmHg 88%
    01:00 +5°C° 0 mm 4 m/s 737 mmHg 89%
    02:00 +5°C° 0 mm 4 m/s 738 mmHg 90%
    03:00 +4°C° 0 mm 4 m/s 738 mmHg 91%
    04:00 +4°C° 0 mm 4 m/s 738 mmHg 93%
    05:00 +4°C° 0 mm 4 m/s 738 mmHg 94%
    06:00 +5°C° 0 mm 5 m/s 737 mmHg 88%
    07:00 +6°C° 0 mm 5 m/s 737 mmHg 82%
    08:00 +7°C° 0 mm 6 m/s 737 mmHg 76%
    09:00 +9°C° 0 mm 7 m/s 736 mmHg 73%
    10:00 +11°C° 0 mm 8 m/s 735 mmHg 69%
    11:00 +12°C° 0 mm 10 m/s 735 mmHg 66%
    12:00 +12°C° 0 mm 10 m/s 734 mmHg 69%
    13:00 +13°C° 0 mm 10 m/s 733 mmHg 72%
    14:00 +13°C° 0 mm 10 m/s 733 mmHg 75%
    15:00 +13°C° 0.2 mm 9 m/s 732 mmHg 77%
    16:00 +13°C° 0.2 mm 9 m/s 732 mmHg 79%
    17:00 +13°C° 0.2 mm 9 m/s 731 mmHg 81%
    18:00 +12°C° 0.7 mm 9 m/s 732 mmHg 81%
    19:00 +11°C° 0.7 mm 8 m/s 732 mmHg 80%
    20:00 +11°C° 0.7 mm 8 m/s 733 mmHg 80%
    21:00 +9°C° 0 mm 7 m/s 734 mmHg 82%
    22:00 +7°C° 0 mm 6 m/s 735 mmHg 83%
    23:00 +5°C° 0 mm 5 m/s 736 mmHg 85%

    29 Septembrie, Sâmbătă

    Timp Temperatura Precipitaţii Vânt Presiune Umiditate
    00:00 +4°C° 0 mm 4 m/s 737 mmHg 87%
    01:00 +3°C° 0 mm 3 m/s 738 mmHg 89%
    02:00 +3°C° 0 mm 2 m/s 739 mmHg 91%
    03:00 +3°C° 0 mm 2 m/s 739 mmHg 91%
    04:00 +3°C° 0 mm 2 m/s 740 mmHg 92%
    05:00 +2°C° 0 mm 2 m/s 740 mmHg 92%
    06:00 +3°C° 0 mm 2 m/s 741 mmHg 87%
    07:00 +5°C° 0 mm 1 m/s 741 mmHg 81%
    08:00 +6°C° 0 mm 1 m/s 742 mmHg 75%
    09:00 +6°C° 0 mm 2 m/s 742 mmHg 68%
    10:00 +7°C° 0 mm 2 m/s 742 mmHg 61%
    11:00 +8°C° 0 mm 2 m/s 743 mmHg 54%
    12:00 +9°C° 0 mm 2 m/s 743 mmHg 54%
    13:00 +9°C° 0 mm 2 m/s 743 mmHg 54%
    14:00 +9°C° 0 mm 2 m/s 743 mmHg 53%
    15:00 +8°C° 0 mm 2 m/s 743 mmHg 58%
    16:00 +8°C° 0 mm 2 m/s 743 mmHg 63%
    17:00 +8°C° 0 mm 1 m/s 743 mmHg 67%
    18:00 +7°C° 0 mm 1 m/s 744 mmHg 70%
    19:00 +6°C° 0 mm 2 m/s 745 mmHg 73%
    20:00 +5°C° 0 mm 2 m/s 745 mmHg 76%
    21:00 +4°C° 0 mm 2 m/s 745 mmHg 77%
    22:00 +4°C° 0 mm 2 m/s 746 mmHg 79%
    23:00 +3°C° 0 mm 2 m/s 746 mmHg 80%

    30 Septembrie, Duminică

    Timp Temperatura Precipitaţii Vânt Presiune Umiditate
    00:00 +3°C° 0 mm 2 m/s 746 mmHg 80%
    01:00 +3°C° 0 mm 2 m/s 747 mmHg 79%
    02:00 +2°C° 0 mm 2 m/s 747 mmHg 79%
    03:00 +2°C° 0 mm 2 m/s 747 mmHg 77%
    04:00 +2°C° 0 mm 1 m/s 748 mmHg 76%
    05:00 +2°C° 0 mm 1 m/s 748 mmHg 75%
    06:00 +3°C° 0 mm 1 m/s 748 mmHg 70%
    07:00 +4°C° 0 mm 1 m/s 749 mmHg 65%
    08:00 +5°C° 0 mm 0 m/s 749 mmHg 60%
    09:00 +7°C° 0 mm 1 m/s 749 mmHg 58%
    10:00 +8°C° 0 mm 1 m/s 749 mmHg 55%
    11:00 +8°C° 0 mm 2 m/s 749 mmHg 52%
    12:00 +9°C° 0 mm 2 m/s 749 mmHg 50%
    13:00 +9°C° 0 mm 3 m/s 748 mmHg 49%
    14:00 +9°C° 0 mm 3 m/s 748 mmHg 47%
    15:00 +8°C° 0 mm 3 m/s 748 mmHg 51%
    16:00 +7°C° 0 mm 2 m/s 748 mmHg 56%
    17:00 +6°C° 0 mm 2 m/s 748 mmHg 60%
    18:00 +6°C° 0 mm 2 m/s 748 mmHg 61%
    19:00 +5°C° 0 mm 2 m/s 748 mmHg 62%
    20:00 +5°C° 0 mm 2 m/s 748 mmHg 63%
    21:00 +4°C° 0 mm 2 m/s 748 mmHg 64%
    22:00 +4°C° 0 mm 2 m/s 748 mmHg 65%
    23:00 +4°C° 0 mm 2 m/s 748 mmHg 66%
    Arată mai mult